DECAYED

CZ-6A DEB, 61328 (Decayed)

Orbit data source: Space-Track

CZ-6A DEB, 61328 was space debris in LEO originally from a launch on Tue, 06 Aug 2024 UTC launched from the Taiyaun Space Center, China (TSC). Debris objects in space refer to the collection of defunct objects orbiting the Earth. Examples of debris include non-operational satellites, rocket bodies, and fragments generated from explosions, collisions, or faulty payload assembly.

Not visible in the next 10 days
Identifier
61328, 2024-140UR
Orbit
Decayed
Country
Flag of CNCN / PRC
Related business
Manufacturer
SAST
Mission
Decayed spacecraft
Bus & Motor
Unknown
Mass
Unknown
Launch date (UTC)
2024-08-06 (1 year ago)
Launch vehicle
Unknown
Launch site
Taiyaun Space Center, China (TSC)
Object type
Payload
Rocket body
Debris
Shape & HBR
Unknown shape, 0.1 m
Radar Cross Section
Small (<0.1 m²)

Expand to show TLE details & history
Last TLE update: 8 months ago

TLE from 8 months ago
0 CZ-6A DEB
1 61328U 24140UR  25084.62899913  .09232470  19750+0  33283-1 0  9995
2 61328  89.2593 330.8525 0020401 224.5359 135.4289 15.95631903 30334
Epoch: 2025-03-25T15:05Z
TLE epoch observation values (Epoch: 2025-03-25T15:05:45.524Z)
Latitude
-0.00003°
Longitude
-78.91545°
Altitude
299.557 km
Speed
7.722 km/s
True Right ascension
22h 03m 24s
True Declination
0° 00' 00"
Sunlit
Object was in daylight at epoch
Visualization orbit readout
Latitude
Unknown
Longitude
Unknown
Altitude
Unknown
Speed
Unknown
Apparent Right ascension
Unknown
Apparent Declination
Unknown
Sunlit
N/A
Visualization observer readout
Local Sidereal Time
08:53:15
Azimuth
Unknown
Elevation
Unknown
Doppler factor
Unknown
Orbital elements
Apogee altitude
296.847 km
Perigee altitude
269.667 km
Semi-major axis
6,661.394 km
Eccentricity
0.00204
Inclination
89.2593°
RAAN
330.8525°
Arg. of periapsis
224.5359°
True anomaly
135.59267°
Mean anomaly
135.4289°
Eccentric anomaly
135.51081°
Mean motion
3.99205 °/min
Orbital period
90.18 mins
BSTAR
0.033283
Loading maneuver chart data...
Computing Atmospheric mass density...
Loading historical data...
Loading historical data...
Loading historical data...
Loading historical data...
Loading historical data...
Loading historical data...
Loading historical data...

Documentation

Showing up to 5 results
|